| time (UTC) | temp F | wind direction | speed knots | gust knots | rain 1hr in | rain 24hr in | rain mn in | humidity % | barometer mb |
| 20260506051203 | 61 | 323 | 5.2 | 8.7 | 0.00 | 0.00 | 0.00 | 81 | 1005.9 |
| 20260506050701 | 61 | 353 | 2.6 | 5.2 | 0.00 | 0.00 | 0.00 | 81 | 1006.2 |
| 20260506050158 | 61 | 314 | 2.6 | 7.8 | 0.00 | 0.00 | 0.00 | 81 | 1005.7 |
| 20260506044649 | 62 | 5 | 2.6 | 8.7 | 0.00 | 0.00 | 0.00 | 80 | 1005.8 |
| 20260506044146 | 62 | 326 | 2.6 | 5.2 | 0.00 | 0.00 | 0.00 | 80 | 1005.8 |
| 20260506043643 | 63 | 309 | 3.5 | 5.2 | 0.00 | 0.00 | 0.00 | 80 | 1005.8 |
| 20260506043141 | 63 | 19 | 3.5 | 8.7 | 0.00 | 0.00 | 0.00 | 80 | 1005.7 |
| 20260506042640 | 63 | 289 | 3.5 | 9.6 | 0.00 | 0.00 | 0.00 | 80 | 1005.6 |
| 20260506042137 | 63 | 42 | 4.3 | 7.0 | 0.00 | 0.00 | 0.00 | 79 | 1005.5 |
| 20260506041636 | 63 | 340 | 1.7 | 8.7 | 0.00 | 0.00 | 0.00 | 79 | 1005.7 |
| 20260506041132 | 63 | 2 | 2.6 | 6.1 | 0.00 | 0.00 | 0.00 | 80 | 1005.2 |
| 20260506040630 | 64 | 340 | 7.8 | 8.7 | 0.00 | 0.00 | 0.00 | 80 | 1005.1 |
| 20260506040126 | 64 | 243 | 3.5 | 9.6 | 0.00 | 0.00 | 0.00 | 79 | 1005.3 |
| 20260506035623 | 64 | 344 | 4.3 | 7.0 | 0.00 | 0.00 | 0.00 | 80 | 1005.2 |
| 20260506035119 | 64 | 46 | 1.7 | 6.1 | 0.00 | 0.00 | 0.00 | 80 | 1005.4 |
| 20260506034617 | 64 | 42 | 2.6 | 7.0 | 0.00 | 0.00 | 0.00 | 80 | 1005.1 |
| 20260506034114 | 65 | 257 | 4.3 | 9.6 | 0.00 | 0.00 | 0.00 | 80 | 1005.0 |
| 20260506033611 | 65 | 319 | 3.5 | 7.0 | 0.00 | 0.00 | 0.00 | 80 | 1005.0 |
| 20260506033108 | 66 | 333 | 3.5 | 9.6 | 0.00 | 0.00 | 0.00 | 80 | 1004.9 |
| 20260506032606 | 66 | 354 | 5.2 | 7.0 | 0.00 | 0.00 | 0.00 | 79 | 1004.7 |
| 20260506032102 | 66 | 301 | 3.5 | 11.3 | 0.00 | 0.00 | 0.00 | 79 | 1004.8 |
| 20260506031600 | 67 | 346 | 4.3 | 13.0 | 0.00 | 0.00 | 0.00 | 79 | 1004.8 |
| 20260506031056 | 68 | 11 | 3.5 | 7.8 | 0.00 | 0.00 | 0.00 | 78 | 1004.4 |
| 20260506030555 | 68 | 283 | 0.9 | 2.6 | 0.00 | 0.00 | 0.00 | 79 | 1004.5 |
| 20260506030052 | 68 | 294 | 5.2 | 7.8 | 0.00 | 0.00 | 0.00 | 78 | 1004.5 |
| 20260506025549 | 69 | 346 | 1.7 | 7.0 | 0.00 | 0.00 | 0.00 | 78 | 1004.4 |
| 20260506025044 | 69 | 81 | 4.3 | 7.0 | 0.00 | 0.00 | 0.00 | 77 | 1004.1 |
| 20260506024542 | 69 | 13 | 3.5 | 4.3 | 0.00 | 0.00 | 0.00 | 77 | 1004.2 |
| 20260506024038 | 69 | 321 | 7.8 | 12.2 | 0.00 | 0.00 | 0.00 | 77 | 1003.9 |
| 20260506023534 | 69 | 298 | 6.1 | 8.7 | 0.00 | 0.00 | 0.00 | 77 | 1003.6 |
| 20260506023032 | 69 | 14 | 5.2 | 11.3 | 0.00 | 0.00 | 0.00 | 77 | 1003.4 |
| 20260506022529 | 70 | 313 | 3.5 | 7.0 | 0.00 | 0.00 | 0.00 | 77 | 1003.4 |
| 20260506022027 | 70 | 358 | 4.3 | 11.3 | 0.00 | 0.00 | 0.00 | 77 | 1003.3 |
| 20260506021524 | 71 | 326 | 6.1 | 9.6 | 0.00 | 0.00 | 0.00 | 76 | 1003.3 |
| 20260506021021 | 71 | 312 | 3.5 | 7.0 | 0.00 | 0.00 | 0.00 | 76 | 1003.2 |
| 20260506020519 | 72 | 359 | 4.3 | 8.7 | 0.00 | 0.00 | 0.00 | 75 | 1002.7 |
| 20260506020016 | 72 | 40 | 1.7 | 6.1 | 0.00 | 0.00 | 0.00 | 74 | 1002.5 |
| 20260506015513 | 73 | 49 | 0.9 | 7.0 | 0.00 | 0.00 | 0.00 | 73 | 1002.8 |
| 20260506015010 | 73 | 313 | 5.2 | 6.1 | 0.00 | 0.00 | 0.00 | 73 | 1002.9 |
| 20260506014508 | 73 | 326 | 0.9 | 4.3 | 0.00 | 0.00 | 0.00 | 72 | 1002.7 |
| 20260506014003 | 73 | 26 | 2.6 | 5.2 | 0.00 | 0.00 | 0.00 | 72 | 1002.5 |
| 20260506013501 | 73 | 7 | 2.6 | 7.0 | 0.00 | 0.00 | 0.00 | 71 | 1002.5 |
| 20260506012957 | 73 | 351 | 1.7 | 5.2 | 0.00 | 0.00 | 0.00 | 71 | 1002.5 |
| 20260506012454 | 73 | 337 | 3.5 | 4.3 | 0.00 | 0.00 | 0.00 | 70 | 1002.5 |
| 20260506011951 | 73 | 350 | 2.6 | 2.6 | 0.00 | 0.00 | 0.00 | 70 | 1002.7 |
| 20260506011448 | 73 | 1 | 6.1 | 8.7 | 0.00 | 0.00 | 0.00 | 70 | 1002.7 |
| 20260506010945 | 74 | 4 | 0.9 | 7.0 | 0.00 | 0.00 | 0.00 | 70 | 1002.3 |
| 20260506010444 | 74 | 351 | 0.9 | 4.3 | 0.00 | 0.00 | 0.00 | 71 | 1002.2 |
| 20260506005939 | 74 | 299 | 3.5 | 6.1 | 0.00 | 0.00 | 0.00 | 71 | 1002.1 |
| 20260506005438 | 74 | 69 | 1.7 | 5.2 | 0.00 | 0.00 | 0.00 | 71 | 1001.6 |
| 20260506004932 | 75 | 30 | 4.3 | 8.7 | 0.00 | 0.00 | 0.00 | 71 | 1001.6 |
| 20260506004431 | 75 | 335 | 6.1 | 9.6 | 0.00 | 0.00 | 0.00 | 70 | 1001.9 |
| 20260506003926 | 75 | 344 | 4.3 | 7.0 | 0.00 | 0.00 | 0.00 | 69 | 1001.7 |
| 20260506003423 | 75 | 301 | 4.3 | 7.0 | 0.00 | 0.00 | 0.00 | 69 | 1001.8 |
| 20260506002920 | 76 | 353 | 4.3 | 6.1 | 0.00 | 0.00 | 0.00 | 69 | 1001.6 |
| 20260506002416 | 77 | 354 | 5.2 | 7.8 | 0.00 | 0.00 | 0.00 | 69 | 1001.8 |
| 20260506001911 | 77 | 325 | 4.3 | 5.2 | 0.00 | 0.00 | 0.00 | 67 | 1001.8 |
| 20260506001409 | 78 | 294 | 6.1 | 7.8 | 0.00 | 0.00 | 0.00 | 66 | 1001.8 |
| 20260506000906 | 78 | 278 | 1.7 | 7.0 | 0.00 | 0.00 | 0.00 | 66 | 1001.5 |
| 20260506000403 | 78 | 330 | 4.3 | 9.6 | 0.00 | 0.00 | 0.00 | 66 | 1001.5 |
| 20260505235900 | 78 | 9 | 7.0 | 14.8 | 0.00 | 0.00 | 0.00 | 66 | 1001.0 |
| 20260505235358 | 79 | 290 | 2.6 | 5.2 | 0.00 | 0.00 | 0.00 | 65 | 1001.1 |
| 20260505234854 | 80 | 284 | 5.2 | 7.8 | 0.00 | 0.00 | 0.00 | 65 | 1000.8 |
| 20260505234352 | 80 | 300 | 2.6 | 11.3 | 0.00 | 0.00 | 0.00 | 64 | 1001.0 |
| 20260505233848 | 80 | 341 | 7.8 | 9.6 | 0.00 | 0.00 | 0.00 | 63 | 1001.0 |
| 20260505233346 | 81 | 327 | 6.1 | 9.6 | 0.00 | 0.00 | 0.00 | 62 | 1001.1 |
| 20260505232844 | 82 | 342 | 6.1 | 11.3 | 0.00 | 0.00 | 0.00 | 62 | 1001.0 |
| 20260505232342 | 83 | 317 | 5.2 | 9.6 | 0.00 | 0.00 | 0.00 | 58 | 1000.7 |
| 20260505231838 | 84 | 329 | 4.3 | 7.8 | 0.00 | 0.00 | 0.00 | 55 | 1000.5 |
| 20260505231336 | 84 | 3 | 3.5 | 7.0 | 0.00 | 0.00 | 0.00 | 54 | 1000.6 |
| 20260505230834 | 85 | 287 | 7.0 | 9.6 | 0.00 | 0.00 | 0.00 | 52 | 1000.3 |
| 20260505230330 | 85 | 339 | 4.3 | 7.0 | 0.00 | 0.00 | 0.00 | 51 | 1000.3 |
| 20260505225827 | 86 | 319 | 2.6 | 6.1 | 0.00 | 0.00 | 0.00 | 50 | 1000.1 |
| 20260505225325 | 89 | 3 | 3.5 | 7.0 | 0.00 | 0.00 | 0.00 | 50 | 1000.1 |
| 20260505224819 | 89 | 252 | 2.6 | 4.3 | 0.00 | 0.00 | 0.00 | 54 | 999.9 |
| 20260505224318 | 89 | 186 | 0.0 | 1.7 | 0.00 | 0.00 | 0.00 | 53 | 999.9 |
| 20260505223814 | 88 | 222 | 0.9 | 4.3 | 0.00 | 0.00 | 0.00 | 54 | 1000.1 |
| 20260505223312 | 89 | 187 | 0.9 | 4.3 | 0.00 | 0.00 | 0.00 | 54 | 999.9 |
| 20260505222807 | 89 | 217 | 2.6 | 6.1 | 0.00 | 0.00 | 0.00 | 54 | 999.7 |
| 20260505222305 | 89 | 173 | 1.7 | 2.6 | 0.00 | 0.00 | 0.00 | 54 | 999.7 |
| 20260505221801 | 89 | 191 | 1.7 | 1.7 | 0.00 | 0.00 | 0.00 | 54 | 999.6 |
| 20260505221257 | 88 | 223 | 4.3 | 7.8 | 0.00 | 0.00 | 0.00 | 55 | 999.7 |
| 20260505220754 | 89 | 209 | 2.6 | 6.1 | 0.00 | 0.00 | 0.00 | 55 | 999.5 |
| 20260505220252 | 90 | 166 | 1.7 | 6.1 | 0.00 | 0.00 | 0.00 | 55 | 999.8 |
| 20260505215750 | 89 | 185 | 1.7 | 5.2 | 0.00 | 0.00 | 0.00 | 55 | 999.8 |
| 20260505215247 | 88 | 203 | 1.7 | 2.6 | 0.00 | 0.00 | 0.00 | 55 | 999.8 |
| 20260505214745 | 88 | 0 | 0.9 | 2.6 | 0.00 | 0.00 | 0.00 | 57 | 999.9 |
| 20260505214242 | 89 | 136 | 2.6 | 6.1 | 0.00 | 0.00 | 0.00 | 55 | 999.8 |
| 20260505213739 | 88 | 185 | 3.5 | 4.3 | 0.00 | 0.00 | 0.00 | 56 | 999.6 |
| 20260505213236 | 89 | 175 | 4.3 | 7.0 | 0.00 | 0.00 | 0.00 | 57 | 999.9 |
| 20260505212732 | 89 | 210 | 3.5 | 7.8 | 0.00 | 0.00 | 0.00 | 58 | 999.9 |
| 20260505212230 | 88 | 196 | 2.6 | 4.3 | 0.00 | 0.00 | 0.00 | 60 | 1000.0 |
| 20260505211726 | 89 | 277 | 4.3 | 7.0 | 0.00 | 0.00 | 0.00 | 58 | 1000.1 |
| 20260505211224 | 89 | 205 | 0.9 | 4.3 | 0.00 | 0.00 | 0.00 | 57 | 1000.1 |
| 20260505210720 | 89 | 204 | 0.9 | 7.0 | 0.00 | 0.00 | 0.00 | 60 | 1000.3 |
| 20260505210217 | 89 | 213 | 1.7 | 6.1 | 0.00 | 0.00 | 0.00 | 59 | 1000.0 |
| 20260505205714 | 88 | 217 | 6.1 | 7.8 | 0.00 | 0.00 | 0.00 | 59 | 1000.3 |
| 20260505205213 | 87 | 188 | 4.3 | 8.7 | 0.00 | 0.00 | 0.00 | 61 | 1000.3 |
| 20260505204709 | 87 | 202 | 2.6 | 11.3 | 0.00 | 0.00 | 0.00 | 62 | 1000.2 |
| 20260505204207 | 89 | 136 | 4.3 | 9.6 | 0.00 | 0.00 | 0.00 | 60 | 1000.5 |
| 20260505203704 | 88 | 188 | 1.7 | 6.1 | 0.00 | 0.00 | 0.00 | 61 | 1000.5 |
| 20260505203201 | 87 | 212 | 4.3 | 11.3 | 0.00 | 0.00 | 0.00 | 63 | 1000.7 |
| 20260505202656 | 87 | 99 | 1.7 | 7.8 | 0.00 | 0.00 | 0.00 | 62 | 1000.6 |
| 20260505202153 | 87 | 250 | 1.7 | 11.3 | 0.00 | 0.00 | 0.00 | 62 | 1000.5 |
| 20260505201649 | 87 | 133 | 0.9 | 8.7 | 0.00 | 0.00 | 0.00 | 63 | 1000.6 |
| 20260505201147 | 86 | 31 | 1.7 | 9.6 | 0.00 | 0.00 | 0.00 | 64 | 1000.7 |
| 20260505200645 | 87 | 172 | 7.8 | 13.0 | 0.00 | 0.00 | 0.00 | 63 | 1000.7 |
| 20260505200141 | 86 | 116 | 0.9 | 7.0 | 0.00 | 0.00 | 0.00 | 64 | 1000.8 |
| 20260505195637 | 86 | 142 | 4.3 | 7.0 | 0.00 | 0.00 | 0.00 | 63 | 1001.0 |
| 20260505195135 | 86 | 174 | 6.1 | 9.6 | 0.00 | 0.00 | 0.00 | 64 | 1001.0 |
| 20260505194632 | 86 | 158 | 6.1 | 11.3 | 0.00 | 0.00 | 0.00 | 64 | 1001.1 |
| 20260505194128 | 86 | 161 | 2.6 | 8.7 | 0.00 | 0.00 | 0.00 | 65 | 1000.8 |
| 20260505193625 | 85 | 181 | 6.1 | 9.6 | 0.00 | 0.00 | 0.00 | 65 | 1001.1 |
| 20260505193122 | 85 | 215 | 4.3 | 12.2 | 0.00 | 0.00 | 0.00 | 66 | 1001.1 |
| 20260505192621 | 85 | 183 | 4.3 | 8.7 | 0.00 | 0.00 | 0.00 | 66 | 1001.0 |
| 20260505192117 | 85 | 103 | 3.5 | 8.7 | 0.00 | 0.00 | 0.00 | 66 | 1000.8 |
| 20260505191616 | 84 | 164 | 2.6 | 9.6 | 0.00 | 0.00 | 0.00 | 67 | 1001.1 |
| 20260505191113 | 84 | 146 | 6.1 | 12.2 | 0.00 | 0.00 | 0.00 | 67 | 1001.0 |
| 20260505190609 | 84 | 196 | 7.8 | 9.6 | 0.00 | 0.00 | 0.00 | 67 | 1001.0 |
| 20260505190104 | 85 | 202 | 6.1 | 12.2 | 0.00 | 0.00 | 0.00 | 66 | 1001.1 |
| 20260505185601 | 83 | 209 | 1.7 | 7.0 | 0.00 | 0.00 | 0.00 | 69 | 1001.1 |
| 20260505185057 | 83 | 221 | 2.6 | 9.6 | 0.00 | 0.00 | 0.00 | 69 | 1001.2 |
| 20260505184555 | 82 | 141 | 3.5 | 7.0 | 0.00 | 0.00 | 0.00 | 70 | 1001.2 |
| 20260505184051 | 83 | 208 | 2.6 | 7.8 | 0.00 | 0.00 | 0.00 | 69 | 1001.3 |
| 20260505183548 | 82 | 185 | 4.3 | 7.8 | 0.00 | 0.00 | 0.00 | 70 | 1001.2 |
| 20260505183045 | 82 | 172 | 2.6 | 9.6 | 0.00 | 0.00 | 0.00 | 71 | 1001.1 |
| 20260505182541 | 82 | 149 | 4.3 | 7.8 | 0.00 | 0.00 | 0.00 | 71 | 1001.1 |
| 20260505182038 | 81 | 142 | 2.6 | 9.6 | 0.00 | 0.00 | 0.00 | 72 | 1001.2 |
| 20260505181535 | 82 | 198 | 4.3 | 8.7 | 0.00 | 0.00 | 0.00 | 71 | 1001.2 |
| 20260505181033 | 82 | 186 | 4.3 | 12.2 | 0.00 | 0.00 | 0.00 | 71 | 1001.3 |
| 20260505180528 | 82 | 154 | 7.0 | 9.6 | 0.00 | 0.00 | 0.00 | 72 | 1001.3 |
| 20260505180027 | 82 | 186 | 2.6 | 7.0 | 0.00 | 0.00 | 0.00 | 71 | 1001.1 |
| 20260505175526 | 81 | 154 | 6.1 | 13.0 | 0.00 | 0.00 | 0.00 | 73 | 1001.2 |
| 20260505175024 | 81 | 179 | 5.2 | 13.0 | 0.00 | 0.00 | 0.00 | 72 | 1001.2 |
| 20260505174520 | 81 | 181 | 7.0 | 8.7 | 0.00 | 0.00 | 0.00 | 72 | 1001.1 |
| 20260505174016 | 80 | 187 | 5.2 | 12.2 | 0.00 | 0.00 | 0.00 | 72 | 1001.3 |
| 20260505173513 | 81 | 147 | 4.3 | 8.7 | 0.00 | 0.00 | 0.00 | 73 | 1001.3 |
| 20260505173010 | 81 | 221 | 5.2 | 9.6 | 0.00 | 0.00 | 0.00 | 73 | 1001.3 |
| 20260505172508 | 80 | 198 | 2.6 | 7.8 | 0.00 | 0.00 | 0.00 | 73 | 1001.4 |
| 20260505172003 | 80 | 133 | 1.7 | 6.1 | 0.00 | 0.00 | 0.00 | 74 | 1001.4 |
| 20260505171459 | 79 | 210 | 5.2 | 9.6 | 0.00 | 0.00 | 0.00 | 74 | 1001.6 |
| 20260505170956 | 79 | 228 | 5.2 | 11.3 | 0.00 | 0.00 | 0.00 | 75 | 1001.5 |
| 20260505170452 | 79 | 250 | 7.8 | 12.2 | 0.00 | 0.00 | 0.00 | 75 | 1001.5 |
| 20260505165948 | 79 | 147 | 2.6 | 12.2 | 0.00 | 0.00 | 0.00 | 75 | 1001.5 |
| 20260505165445 | 79 | 169 | 5.2 | 13.0 | 0.00 | 0.00 | 0.00 | 75 | 1001.5 |
| 20260505164940 | 79 | 167 | 3.5 | 13.0 | 0.00 | 0.00 | 0.00 | 75 | 1001.3 |
| 20260505164437 | 79 | 190 | 7.0 | 12.2 | 0.00 | 0.00 | 0.00 | 75 | 1001.5 |
| 20260505163935 | 78 | 141 | 3.5 | 9.6 | 0.00 | 0.00 | 0.00 | 76 | 1001.3 |
| 20260505163433 | 79 | 222 | 4.3 | 13.0 | 0.00 | 0.00 | 0.00 | 76 | 1001.3 |
| 20260505162932 | 78 | 169 | 3.5 | 9.6 | 0.00 | 0.00 | 0.00 | 76 | 1001.3 |
| 20260505162427 | 78 | 259 | 6.1 | 13.9 | 0.00 | 0.00 | 0.00 | 77 | 1001.3 |
| 20260505161924 | 78 | 208 | 7.0 | 11.3 | 0.00 | 0.00 | 0.00 | 77 | 1001.3 |
| 20260505161421 | 78 | 149 | 5.2 | 15.6 | 0.00 | 0.00 | 0.00 | 76 | 1001.4 |
| 20260505160919 | 78 | 207 | 5.2 | 13.0 | 0.00 | 0.00 | 0.00 | 76 | 1001.3 |
| 20260505160416 | 78 | 185 | 6.1 | 13.0 | 0.00 | 0.00 | 0.00 | 76 | 1001.0 |
| 20260505153355 | 77 | 213 | 7.0 | 9.6 | 0.00 | 0.00 | 0.00 | 77 | 1000.8 |
| 20260505152852 | 77 | 175 | 2.6 | 7.8 | 0.00 | 0.00 | 0.00 | 78 | 1001.0 |
| 20260505152344 | 77 | 176 | 6.1 | 14.8 | 0.00 | 0.00 | 0.00 | 78 | 1001.1 |
| 20260505151843 | 77 | 185 | 6.1 | 11.3 | 0.00 | 0.00 | 0.00 | 78 | 1001.2 |
| 20260505151340 | 77 | 164 | 5.2 | 8.7 | 0.00 | 0.00 | 0.00 | 79 | 1001.1 |
| 20260505150837 | 76 | 209 | 5.2 | 13.9 | 0.00 | 0.00 | 0.00 | 80 | 1001.4 |
| 20260505150334 | 76 | 183 | 5.2 | 9.6 | 0.00 | 0.00 | 0.00 | 80 | 1001.1 |
| 20260505140259 | 73 | 187 | 4.3 | 7.8 | 0.00 | 0.00 | 0.00 | 84 | 1001.3 |
| 20260505130223 | 72 | 126 | 4.3 | 15.6 | 0.00 | 0.00 | 0.00 | 86 | 1001.0 |
| 20260505124713 | 72 | 178 | 5.2 | 14.8 | 0.00 | 0.00 | 0.00 | 86 | 1000.6 |
| 20260505124210 | 72 | 123 | 7.0 | 12.2 | 0.00 | 0.00 | 0.00 | 86 | 1000.6 |
| 20260505123705 | 72 | 178 | 4.3 | 8.7 | 0.00 | 0.00 | 0.00 | 86 | 1000.7 |
| 20260505123202 | 72 | 186 | 3.5 | 12.2 | 0.00 | 0.00 | 0.00 | 86 | 1000.4 |
| 20260505122659 | 72 | 219 | 2.6 | 6.1 | 0.00 | 0.00 | 0.00 | 86 | 1000.3 |
| 20260505122156 | 72 | 182 | 2.6 | 5.2 | 0.00 | 0.00 | 0.00 | 86 | 1000.3 |
| 20260505121653 | 72 | 211 | 6.1 | 9.6 | 0.00 | 0.00 | 0.00 | 86 | 1000.3 |
| 20260505121149 | 72 | 142 | 5.2 | 7.8 | 0.00 | 0.00 | 0.00 | 86 | 1000.4 |
| 20260505120645 | 72 | 194 | 7.0 | 7.8 | 0.00 | 0.00 | 0.00 | 86 | 1000.1 |
| 20260505120142 | 72 | 202 | 4.3 | 12.2 | 0.00 | 0.00 | 0.00 | 86 | 1000.3 |
| 20260505115635 | 72 | 202 | 4.3 | 6.1 | 0.00 | 0.00 | 0.00 | 86 | 1000.2 |
| 20260505115134 | 72 | 223 | 2.6 | 7.0 | 0.00 | 0.00 | 0.00 | 86 | 1000.0 |
| 20260505114630 | 72 | 134 | 4.3 | 7.0 | 0.00 | 0.00 | 0.00 | 86 | 1000.2 |
| 20260505114127 | 72 | 206 | 4.3 | 9.6 | 0.00 | 0.00 | 0.00 | 86 | 1000.1 |
| 20260505113623 | 71 | 127 | 5.2 | 9.6 | 0.00 | 0.00 | 0.00 | 86 | 1000.0 |
| 20260505113120 | 71 | 192 | 2.6 | 5.2 | 0.00 | 0.00 | 0.00 | 86 | 1000.2 |
| 20260505112616 | 72 | 148 | 3.5 | 7.8 | 0.00 | 0.00 | 0.00 | 86 | 999.7 |
| 20260505112114 | 71 | 67 | 4.3 | 8.7 | 0.00 | 0.00 | 0.00 | 86 | 1000.0 |
| 20260505111608 | 71 | 138 | 5.2 | 8.7 | 0.00 | 0.00 | 0.00 | 86 | 1000.0 |
| 20260505111104 | 72 | 184 | 3.5 | 5.2 | 0.00 | 0.00 | 0.00 | 86 | 1000.2 |
| 20260505110601 | 72 | 191 | 5.2 | 12.2 | 0.00 | 0.00 | 0.00 | 84 | 1000.0 |
| 20260505102033 | 71 | 142 | 3.5 | 9.6 | 0.00 | 0.00 | 0.00 | 86 | 1000.1 |
| 20260505101532 | 71 | 172 | 2.6 | 8.7 | 0.00 | 0.00 | 0.00 | 86 | 1000.1 |
| 20260505101028 | 71 | 210 | 2.6 | 6.1 | 0.00 | 0.00 | 0.00 | 86 | 1000.2 |
| 20260505100525 | 71 | 205 | 2.6 | 5.2 | 0.00 | 0.00 | 0.00 | 86 | 1000.2 |
| 20260505100022 | 72 | 143 | 1.7 | 2.6 | 0.00 | 0.00 | 0.00 | 86 | 1000.2 |
| 20260505095518 | 72 | 173 | 5.2 | 8.7 | 0.00 | 0.00 | 0.00 | 85 | 1000.1 |
| 20260505095014 | 72 | 178 | 3.5 | 6.1 | 0.00 | 0.00 | 0.00 | 86 | 1000.2 |
| 20260505094511 | 71 | 191 | 8.7 | 11.3 | 0.00 | 0.00 | 0.00 | 86 | 1000.0 |
| 20260505094007 | 72 | 176 | 4.3 | 12.2 | 0.00 | 0.00 | 0.00 | 85 | 1000.4 |
| 20260505093503 | 71 | 184 | 3.5 | 7.8 | 0.00 | 0.00 | 0.00 | 86 | 1000.2 |
| 20260505093001 | 72 | 194 | 2.6 | 5.2 | 0.00 | 0.00 | 0.00 | 86 | 1000.3 |
| 20260505092458 | 71 | 167 | 2.6 | 7.0 | 0.00 | 0.00 | 0.00 | 86 | 1000.4 |
| 20260505091956 | 71 | 187 | 4.3 | 7.8 | 0.00 | 0.00 | 0.00 | 86 | 1000.5 |
| 20260505091453 | 71 | 226 | 9.6 | 14.8 | 0.00 | 0.00 | 0.00 | 86 | 1000.7 |
| 20260505090951 | 71 | 142 | 6.1 | 8.7 | 0.00 | 0.00 | 0.00 | 86 | 1000.4 |
| 20260505090449 | 71 | 226 | 5.2 | 12.2 | 0.00 | 0.00 | 0.00 | 86 | 1000.6 |
| 20260505085946 | 71 | 170 | 6.1 | 7.8 | 0.00 | 0.00 | 0.00 | 86 | 1000.5 |
| 20260505085444 | 71 | 163 | 4.3 | 9.6 | 0.00 | 0.00 | 0.00 | 86 | 1000.6 |
| 20260505084942 | 71 | 235 | 3.5 | 6.1 | 0.00 | 0.00 | 0.00 | 87 | 1000.4 |
| 20260505084440 | 71 | 192 | 6.1 | 8.7 | 0.00 | 0.00 | 0.00 | 87 | 1000.6 |
| 20260505083938 | 71 | 159 | 4.3 | 11.3 | 0.00 | 0.00 | 0.00 | 86 | 1000.6 |
| 20260505083435 | 71 | 204 | 4.3 | 7.0 | 0.00 | 0.00 | 0.00 | 86 | 1000.6 |
| 20260505082931 | 71 | 200 | 4.3 | 8.7 | 0.00 | 0.00 | 0.00 | 86 | 1000.5 |
| 20260505082427 | 71 | 174 | 4.3 | 12.2 | 0.00 | 0.00 | 0.00 | 86 | 1000.6 |
| 20260505081924 | 71 | 183 | 2.6 | 6.1 | 0.00 | 0.00 | 0.00 | 86 | 1000.7 |
| 20260505081421 | 71 | 139 | 2.6 | 7.0 | 0.00 | 0.00 | 0.00 | 86 | 1000.6 |
| 20260505080917 | 71 | 153 | 4.3 | 7.0 | 0.00 | 0.00 | 0.00 | 85 | 1000.7 |
| 20260505080414 | 71 | 195 | 7.0 | 9.6 | 0.00 | 0.00 | 0.00 | 85 | 1000.6 |
| 20260505075909 | 71 | 187 | 8.7 | 13.9 | 0.00 | 0.00 | 0.00 | 85 | 1000.7 |
| 20260505075406 | 71 | 174 | 5.2 | 6.1 | 0.00 | 0.00 | 0.00 | 85 | 1000.8 |
| 20260505074903 | 71 | 195 | 5.2 | 7.8 | 0.00 | 0.00 | 0.00 | 84 | 1000.8 |
| 20260505074400 | 72 | 190 | 3.5 | 5.2 | 0.00 | 0.00 | 0.00 | 84 | 1001.1 |
| 20260505073857 | 72 | 175 | 2.6 | 7.0 | 0.00 | 0.00 | 0.00 | 84 | 1001.0 |
| 20260505073355 | 72 | 202 | 5.2 | 9.6 | 0.00 | 0.00 | 0.00 | 84 | 1001.1 |
| 20260505072852 | 72 | 128 | 2.6 | 11.3 | 0.00 | 0.00 | 0.00 | 83 | 1001.1 |
| 20260505072348 | 72 | 154 | 3.5 | 13.9 | 0.00 | 0.00 | 0.00 | 83 | 1001.5 |
| 20260505071845 | 72 | 163 | 4.3 | 8.7 | 0.00 | 0.00 | 0.00 | 83 | 1001.6 |
| 20260505071341 | 72 | 148 | 1.7 | 4.3 | 0.00 | 0.00 | 0.00 | 83 | 1001.5 |
| 20260505070839 | 72 | 194 | 5.2 | 7.8 | 0.00 | 0.00 | 0.00 | 82 | 1001.5 |
| 20260505070335 | 72 | 141 | 7.0 | 8.7 | 0.00 | 0.00 | 0.00 | 82 | 1001.6 |
| 20260505065831 | 72 | 179 | 4.3 | 12.2 | 0.00 | 0.00 | 0.00 | 82 | 1001.5 |
| 20260505065328 | 72 | 127 | 7.0 | 12.2 | 0.00 | 0.00 | 0.00 | 81 | 1001.6 |
| 20260505064825 | 72 | 213 | 5.2 | 13.9 | 0.00 | 0.00 | 0.00 | 81 | 1001.8 |
| 20260505064322 | 72 | 187 | 7.8 | 11.3 | 0.00 | 0.00 | 0.00 | 81 | 1001.7 |
| 20260505063820 | 72 | 176 | 2.6 | 7.0 | 0.00 | 0.00 | 0.00 | 81 | 1001.9 |
| 20260505063315 | 72 | 211 | 7.0 | 8.7 | 0.00 | 0.00 | 0.00 | 81 | 1001.8 |
| 20260505062812 | 72 | 220 | 6.1 | 7.8 | 0.00 | 0.00 | 0.00 | 80 | 1001.9 |
| 20260505062310 | 72 | 208 | 4.3 | 7.0 | 0.00 | 0.00 | 0.00 | 80 | 1002.0 |
| 20260505061806 | 72 | 171 | 4.3 | 6.1 | 0.00 | 0.00 | 0.00 | 80 | 1001.9 |
| 20260505061305 | 72 | 200 | 6.1 | 12.2 | 0.00 | 0.00 | 0.00 | 80 | 1002.1 |
| 20260505060802 | 72 | 202 | 4.3 | 9.6 | 0.00 | 0.00 | 0.00 | 80 | 1002.0 |
| 20260505060259 | 73 | 176 | 4.3 | 12.2 | 0.00 | 0.00 | 0.00 | 79 | 1001.8 |
| 20260505055754 | 73 | 208 | 4.3 | 11.3 | 0.00 | 0.00 | 0.00 | 79 | 1001.9 |
| 20260505055250 | 73 | 191 | 7.0 | 8.7 | 0.00 | 0.00 | 0.00 | 79 | 1002.0 |
| 20260505054748 | 73 | 200 | 6.1 | 7.8 | 0.00 | 0.00 | 0.00 | 78 | 1002.0 |